Location: Dentlein
(49.1477°N, 10.4231°E)
Time: 03:03:28
(UTC+00:00)

Meteor 1-4 Rocket - Pass Details

Date: 23 May 2024
Orbit: 359 x 380 km, 81.2° (Epoch: 13 June)

Event Time Altitude Azimuth Distance (km) Brightness Sun altitude
Exits shadow 00:57:20 57° 190° (S) 433 1.9 -16.6°
Maximum altitude 00:57:51 89° 124° (SE) 367 1.8 -16.6°
Drops below altitude 10° 01:00:48 10° 12° (NNE) 1,358 6.1 -16.3°
Sets 01:02:47 0° 12° (NNE) 2,213 7.5 -16.2°
